Time,TemperatureF,DewpointF,PressureIn,WindDirection,WindDirectionDegrees,WindSpeedMPH,WindSpeedGustMPH,Humidity,HourlyPrecipIn,Conditions,Clouds,dailyrainin,SoftwareType,DateUTC
2013-04-10 00:14:00,74.7,67.0,29.89,South,181,5.0,10.0,77,0.00,,,0.00,weatherlink.com 1.10,2013-04-10 05:14:00,
2013-04-10 00:29:00,74.4,67.0,29.89,SSW,201,5.0,12.0,77,0.00,,,0.00,weatherlink.com 1.10,2013-04-10 05:29:00,
2013-04-10 00:44:00,74.2,67.0,29.89,WSW,243,3.0,9.0,78,0.00,,,0.00,weatherlink.com 1.10,2013-04-10 05:44:00,
2013-04-10 00:59:00,74.1,67.0,29.89,ESE,115,7.0,10.0,78,0.00,,,0.00,weatherlink.com 1.10,2013-04-10 05:59:00,
2013-04-10 01:14:00,73.9,67.0,29.89,WSW,258,6.0,9.0,78,0.00,,,0.00,weatherlink.com 1.10,2013-04-10 06:14:00,
2013-04-10 01:29:00,73.6,67.0,29.88,SSW,205,2.0,10.0,79,0.00,,,0.00,weatherlink.com 1.10,2013-04-10 06:29:00,
2013-04-10 01:44:00,73.5,67.0,29.88,SW,225,6.0,12.0,79,0.00,,,0.00,weatherlink.com 1.10,2013-04-10 06:44:00,
2013-04-10 01:59:00,73.4,67.0,29.88,SSW,198,3.0,10.0,79,0.00,,,0.00,weatherlink.com 1.10,2013-04-10 06:59:00,
2013-04-10 02:14:00,73.5,67.0,29.89,NNE,32,4.0,8.0,79,0.00,,,0.00,weatherlink.com 1.10,2013-04-10 07:14:00,
2013-04-10 02:29:00,73.5,67.0,29.88,NNE,15,5.0,12.0,79,0.00,,,0.00,weatherlink.com 1.10,2013-04-10 07:29:00,
2013-04-10 02:44:00,73.3,66.0,29.87,SW,229,6.0,11.0,79,0.00,,,0.00,weatherlink.com 1.10,2013-04-10 07:44:00,
2013-04-10 02:59:00,73.3,66.0,29.87,SW,235,4.0,10.0,79,0.00,,,0.00,weatherlink.com 1.10,2013-04-10 07:59:00,
2013-04-10 03:14:00,73.2,66.0,29.87,SW,224,4.0,8.0,79,0.00,,,0.00,weatherlink.com 1.10,2013-04-10 08:14:00,
2013-04-10 03:29:00,73.5,67.0,29.87,SW,217,3.0,11.0,79,0.00,,,0.00,weatherlink.com 1.10,2013-04-10 08:29:00,
2013-04-10 03:44:00,73.3,66.0,29.86,South,184,6.0,12.0,79,0.00,,,0.00,weatherlink.com 1.10,2013-04-10 08:44:00,
2013-04-10 03:59:00,73.0,67.0,29.86,SW,218,4.0,11.0,80,0.00,,,0.00,weatherlink.com 1.10,2013-04-10 08:59:00,
2013-04-10 04:14:00,72.7,67.0,29.87,SSW,198,3.0,10.0,81,0.00,,,0.00,weatherlink.com 1.10,2013-04-10 09:14:00,
2013-04-10 04:29:00,72.5,66.0,29.86,ESE,112,5.0,7.0,81,0.00,,,0.00,weatherlink.com 1.10,2013-04-10 09:29:00,
2013-04-10 04:44:00,72.0,66.0,29.86,SW,228,4.0,5.0,82,0.00,,,0.00,weatherlink.com 1.10,2013-04-10 09:44:00,
2013-04-10 04:59:00,71.6,66.0,29.86,WSW,249,1.0,6.0,83,0.00,,,0.00,weatherlink.com 1.10,2013-04-10 09:59:00,
2013-04-10 05:14:00,71.7,66.0,29.86,SW,217,3.0,6.0,83,0.00,,,0.00,weatherlink.com 1.10,2013-04-10 10:14:00,
2013-04-10 05:29:00,71.8,66.0,29.87,SSW,208,4.0,6.0,83,0.00,,,0.00,weatherlink.com 1.10,2013-04-10 10:29:00,
2013-04-10 05:44:00,71.8,66.0,29.87,SE,124,3.0,6.0,83,0.00,,,0.00,weatherlink.com 1.10,2013-04-10 10:44:00,
2013-04-10 05:59:00,72.0,67.0,29.87,WSW,240,4.0,7.0,83,0.00,,,0.00,weatherlink.com 1.10,2013-04-10 10:59:00,
2013-04-10 06:14:00,71.8,66.0,29.88,East,94,2.0,8.0,83,0.00,,,0.00,weatherlink.com 1.10,2013-04-10 11:14:00,
2013-04-10 06:29:00,71.5,66.0,29.88,SW,232,3.0,7.0,83,0.00,,,0.00,weatherlink.com 1.10,2013-04-10 11:29:00,
2013-04-10 06:44:00,71.2,66.0,29.88,SW,228,1.0,6.0,84,0.00,,,0.00,weatherlink.com 1.10,2013-04-10 11:44:00,
2013-04-10 06:59:00,71.2,66.0,29.89,SW,224,1.0,4.0,84,0.00,,,0.00,weatherlink.com 1.10,2013-04-10 11:59:00,
2013-04-10 07:14:00,71.5,66.0,29.89,SSW,206,3.0,4.0,83,0.00,,,0.00,weatherlink.com 1.10,2013-04-10 12:14:00,
2013-04-10 07:29:00,71.9,66.0,29.89,SSW,203,1.0,5.0,82,0.00,,,0.00,weatherlink.com 1.10,2013-04-10 12:29:00,
2013-04-10 07:44:00,72.2,66.0,29.90,East,90,4.0,4.0,82,0.00,,,0.00,weatherlink.com 1.10,2013-04-10 12:44:00,
2013-04-10 07:59:00,72.4,66.0,29.91,WSW,256,5.0,5.0,81,0.00,,,0.00,weatherlink.com 1.10,2013-04-10 12:59:00,
2013-04-10 08:15:00,72.5,66.0,29.91,SSW,212,1.0,5.0,81,0.00,,,0.00,weatherlink.com 1.10,2013-04-10 13:15:00,
2013-04-10 08:30:00,73.3,66.0,29.91,SSW,208,2.0,7.0,79,0.00,,,0.00,weatherlink.com 1.10,2013-04-10 13:30:00,
2013-04-10 08:45:00,74.7,67.0,29.91,WSW,249,3.0,9.0,76,0.00,,,0.00,weatherlink.com 1.10,2013-04-10 13:45:00,
2013-04-10 09:00:00,76.2,67.0,29.90,SW,225,3.0,11.0,73,0.00,,,0.00,weatherlink.com 1.10,2013-04-10 14:00:00,
2013-04-10 09:15:00,77.2,67.0,29.91,SSW,205,4.0,12.0,71,0.00,,,0.00,weatherlink.com 1.10,2013-04-10 14:15:00,
2013-04-10 09:30:00,77.1,67.0,29.92,SSW,212,2.0,12.0,71,0.00,,,0.00,weatherlink.com 1.10,2013-04-10 14:30:00,
2013-04-10 09:45:00,77.3,67.0,29.92,SSE,159,8.0,9.0,70,0.00,,,0.00,weatherlink.com 1.10,2013-04-10 14:45:00,
2013-04-10 10:00:00,76.2,67.0,29.93,East,79,3.0,11.0,72,0.00,,,0.00,weatherlink.com 1.10,2013-04-10 15:00:00,
2013-04-10 10:15:00,77.6,67.0,29.93,WSW,243,5.0,9.0,70,0.00,,,0.00,weatherlink.com 1.10,2013-04-10 15:15:00,
2013-04-10 10:30:00,77.3,67.0,29.93,SW,229,3.0,11.0,70,0.00,,,0.00,weatherlink.com 1.10,2013-04-10 15:30:00,
2013-04-10 10:45:00,78.6,68.0,29.93,East,88,5.0,11.0,69,0.00,,,0.00,weatherlink.com 1.10,2013-04-10 15:45:00,
2013-04-10 11:00:00,79.8,67.0,29.93,SW,229,7.0,11.0,66,0.00,,,0.00,weatherlink.com 1.10,2013-04-10 16:00:00,
2013-04-10 11:15:00,80.2,68.0,29.92,ESE,115,2.0,11.0,66,0.00,,,0.00,weatherlink.com 1.10,2013-04-10 16:15:00,
2013-04-10 11:30:00,81.0,67.0,29.91,SSW,197,3.0,12.0,63,0.00,,,0.00,weatherlink.com 1.10,2013-04-10 16:30:00,
2013-04-10 11:45:00,82.3,67.0,29.91,SW,232,5.0,11.0,61,0.00,,,0.00,weatherlink.com 1.10,2013-04-10 16:45:00,
2013-04-10 12:00:00,81.6,67.0,29.90,South,191,6.0,11.0,62,0.00,,,0.00,weatherlink.com 1.10,2013-04-10 17:00:00,
2013-04-10 12:15:00,82.2,68.0,29.89,SW,226,8.0,11.0,62,0.00,,,0.00,weatherlink.com 1.10,2013-04-10 17:15:00,
2013-04-10 12:30:00,83.2,68.0,29.89,SE,139,8.0,13.0,60,0.00,,,0.00,weatherlink.com 1.10,2013-04-10 17:30:00,
2013-04-10 12:45:00,81.8,67.0,29.88,SE,124,4.0,10.0,62,0.00,,,0.00,weatherlink.com 1.10,2013-04-10 17:45:00,
2013-04-10 13:00:00,80.6,67.0,29.88,South,186,2.0,11.0,64,0.00,,,0.00,weatherlink.com 1.10,2013-04-10 18:00:00,
2013-04-10 13:15:00,80.9,67.0,29.88,WSW,238,6.0,9.0,63,0.00,,,0.00,weatherlink.com 1.10,2013-04-10 18:15:00,
2013-04-10 13:30:00,81.4,67.0,29.88,WSW,246,5.0,12.0,62,0.00,,,0.00,weatherlink.com 1.10,2013-04-10 18:30:00,
2013-04-10 13:45:00,82.8,67.0,29.86,SW,226,9.0,11.0,59,0.00,,,0.00,weatherlink.com 1.10,2013-04-10 18:45:00,
2013-04-10 14:00:00,83.1,67.0,29.86,SW,226,8.0,13.0,58,0.00,,,0.00,weatherlink.com 1.10,2013-04-10 19:00:00,
2013-04-10 14:15:00,83.9,66.0,29.85,SSW,208,5.0,13.0,56,0.00,,,0.00,weatherlink.com 1.10,2013-04-10 19:15:00,
2013-04-10 14:45:00,84.0,66.0,29.83,WSW,239,3.0,14.0,55,0.00,,,0.00,weatherlink.com 1.10,2013-04-10 19:45:00,
2013-04-10 15:00:00,84.7,67.0,29.82,ESE,113,4.0,15.0,55,0.00,,,0.00,weatherlink.com 1.10,2013-04-10 20:00:00,
2013-04-10 15:15:00,85.4,67.0,29.80,SSW,207,5.0,11.0,54,0.00,,,0.00,weatherlink.com 1.10,2013-04-10 20:15:00,
2013-04-10 15:30:00,85.4,66.0,29.80,SW,224,4.0,13.0,52,0.00,,,0.00,weatherlink.com 1.10,2013-04-10 20:30:00,
2013-04-10 15:45:00,85.7,65.0,29.79,NE,54,4.0,13.0,50,0.00,,,0.00,weatherlink.com 1.10,2013-04-10 20:45:00,
2013-04-10 16:01:00,86.2,65.0,29.79,WSW,253,6.0,11.0,49,0.00,,,0.00,weatherlink.com 1.10,2013-04-10 21:01:00,
2013-04-10 16:16:00,85.3,64.0,29.77,SW,224,6.0,15.0,49,0.00,,,0.00,weatherlink.com 1.10,2013-04-10 21:16:00,
2013-04-10 16:31:00,84.6,64.0,29.76,WNW,288,3.0,10.0,50,0.00,,,0.00,weatherlink.com 1.10,2013-04-10 21:31:00,
2013-04-10 16:46:00,84.5,64.0,29.76,SW,226,4.0,13.0,51,0.00,,,0.00,weatherlink.com 1.10,2013-04-10 21:46:00,
2013-04-10 17:01:00,83.9,63.0,29.75,East,84,9.0,15.0,50,0.00,,,0.00,weatherlink.com 1.10,2013-04-10 22:01:00,
2013-04-10 17:16:00,83.7,64.0,29.74,SW,222,9.0,11.0,51,0.00,,,0.00,weatherlink.com 1.10,2013-04-10 22:16:00,
2013-04-10 17:31:00,82.9,66.0,29.74,East,94,3.0,12.0,56,0.00,,,0.00,weatherlink.com 1.10,2013-04-10 22:31:00,
2013-04-10 18:01:00,81.6,65.0,29.71,ESE,119,3.0,13.0,57,0.00,,,0.00,weatherlink.com 1.10,2013-04-10 23:01:00,
2013-04-10 18:31:00,80.9,65.0,29.69,SE,138,3.0,7.0,58,0.00,,,0.00,weatherlink.com 1.10,2013-04-10 23:31:00,
2013-04-10 19:01:00,80.2,63.0,29.66,ENE,76,4.0,8.0,57,0.00,,,0.00,weatherlink.com 1.10,2013-04-11 00:01:00,
2013-04-10 19:16:00,79.8,64.0,29.68,SSW,193,3.0,9.0,58,0.00,,,0.00,weatherlink.com 1.10,2013-04-11 00:16:00,
2013-04-10 19:31:00,79.4,64.0,29.67,South,190,5.0,8.0,60,0.00,,,0.00,weatherlink.com 1.10,2013-04-11 00:31:00,
2013-04-10 19:46:00,79.1,64.0,29.67,SW,235,9.0,9.0,61,0.00,,,0.00,weatherlink.com 1.10,2013-04-11 00:46:00,
2013-04-10 20:01:00,78.8,65.0,29.67,SSW,210,2.0,8.0,62,0.00,,,0.00,weatherlink.com 1.10,2013-04-11 01:01:00,
2013-04-10 20:16:00,78.4,65.0,29.67,SSE,163,5.0,7.0,63,0.00,,,0.00,weatherlink.com 1.10,2013-04-11 01:16:00,
2013-04-10 20:31:00,78.2,65.0,29.67,ENE,74,5.0,9.0,64,0.00,,,0.00,weatherlink.com 1.10,2013-04-11 01:31:00,
2013-04-10 20:46:00,78.2,65.0,29.70,SW,225,4.0,7.0,63,0.00,,,0.00,weatherlink.com 1.10,2013-04-11 01:46:00,
2013-04-10 21:01:00,78.2,65.0,29.70,SW,215,2.0,9.0,63,0.00,,,0.00,weatherlink.com 1.10,2013-04-11 02:01:00,
2013-04-10 21:16:00,78.3,65.0,29.70,SW,235,4.0,8.0,63,0.00,,,0.00,weatherlink.com 1.10,2013-04-11 02:16:00,
2013-04-10 21:31:00,78.3,64.0,29.66,SSE,151,4.0,8.0,62,0.00,,,0.00,weatherlink.com 1.10,2013-04-11 02:31:00,
2013-04-10 22:01:00,77.3,65.0,29.70,SSE,155,3.0,8.0,65,0.00,,,0.00,weatherlink.com 1.10,2013-04-11 03:01:00,
2013-04-10 22:46:00,75.1,66.0,29.69,WSW,238,3.0,8.0,73,0.01,,,0.01,weatherlink.com 1.10,2013-04-11 03:46:00,
2013-04-10 23:01:00,73.7,66.0,29.68,SSE,153,2.0,6.0,78,0.05,,,0.05,weatherlink.com 1.10,2013-04-11 04:01:00,
2013-04-10 23:17:00,72.3,67.0,29.68,ESE,105,3.0,6.0,83,0.15,,,0.15,weatherlink.com 1.10,2013-04-11 04:17:00,
2013-04-10 23:46:00,70.9,67.0,29.68,SSW,197,2.0,9.0,86,0.18,,,0.19,weatherlink.com 1.10,2013-04-11 04:46:00,